Temp
7 6 7 8 7 6 6 6 6 6 8 7 7 7 7 8 9 11 11 11 11 11 11 11 11 11 10 10 10 10 10 9 8 8 8 8 8 8 8 7 6 5 5 5
6 5 7 6 6 5 5 5 5 6 7 6 6 5 7 8 9 10 10 11 10 10 11 10 10 10 10 10 11 10 10 9 9 9 8 8 7 7 7 6 6 5 5 5
6 6 6 5 4 5 5 5 6 5 5 5 5 6 7 7 9 10 10 11 10 9 9 10 10 10 10 9 9 10 10 10 10 9 8 8 8 8 8 8 8 7 5 4
5 7 6 5 5 6 4 6 5 4 4 2 3 2 4 7 8 9 9 10 8 9 9 9 10 10 10 10 10 9 9 10 10 10 9 9 8 8 7 7 6 5 5 5
6 5 5 5 5 4 5 4 4 4 4 3 1 2 6 6 7 8 9 9 9 8 7 8 9 9 10 10 9 9 9 9 9 9 9 9 9 8 8 6 6 5 5 5
6 5 4 4 4 4 4 3 3 3 3 -0 3 3 7 7 7 8 8 7 7 7 7 7 8 9 9 9 9 8 8 8 8 8 8 8 8 8 7 7 6 6 5 5
5 4 4 4 4 5 4 2 1 -2 -4 -1 4 3 5 6 6 6 6 6 6 6 6 7 7 8 8 8 8 8 8 8 8 7 7 7 7 7 7 7 7 6 6 6
2 3 3 4 4 4 4 4 1 -2 -3 2 3 3 5 5 5 6 6 5 6 6 6 6 6 7 6 7 7 7 7 7 7 7 7 6 6 6 7 7 7 7 6 5
2 2 3 2 2 2 3 2 3 2 3 -0 2 3 3 6 6 6 6 5 5 5 6 5 5 5 4 5 6 6 6 6 6 6 6 6 6 6 6 6 6 6 5 5
1 1 2 1 2 1 2 2 1 0 -2 -2 1 2 3 5 7 6 4 4 4 5 5 5 4 5 3 4 3 4 3 4 4 4 5 5 5 5 5 5 5 5 5 4
-0 -1 -0 -1 0 1 1 0 0 0 0 -0 -0 2 3 3 4 3 2 1 3 3 4 5 4 4 3 4 4 3 4 4 4 4 4 4 3 3 4 4 4 4 4 4
-3 -2 -3 -0 0 -1 -0 -1 -1 -2 -0 -0 -1 -1 1 1 2 2 1 0 0 0 2 2 2 1 1 2 3 3 3 3 3 3 3 4 4 3 3 3 3 3 4 3
-3 -3 -3 -2 -1 -1 -2 -3 -3 -3 -3 -3 -3 -2 -0 -1 -1 -0 -0 -1 -1 -1 -1 -1 -0 -0 0 1 2 2 2 3 3 2 2 1 2 2 3 2 3 3 3 3
-4 -4 -4 -4 -3 -3 -3 -2 -3 -4 -4 -4 -4 -4 -3 -3 -3 -2 -2 -2 -3 -3 -2 -2 -2 -1 -1 -1 -0 1 -0 0 2 2 1 2 1 1 2 2 2 3 2 2
-4 -5 -5 -5 -5 -4 -5 -5 -4 -5 -6 -6 -5 -6 -5 -4 -3 -3 -2 -2 -2 -4 -5 -4 -4 -4 -3 -2 -2 -1 -1 -2 -1 0 1 1 1 1 0 1 2 2 1 1
-6 -6 -6 -6 -5 -6 -8 -6 -5 -6 -5 -7 -6 -6 -6 -6 -6 -6 -8 -7 -6 -6 -6 -7 -6 -6 -5 -4 -3 -3 -2 -3 -2 -2 -2 -2 -0 1 1 1 1 1 0 0
-8 -8 -8 -8 -8 -8 -9 -6 -7 -6 -6 -6 -7 -6 -7 -9 -9 -9 -9 -8 -8 -9 -9 -8 -7 -7 -8 -7 -6 -6 -5 -4 -4 -4 -3 -3 -2 -1 -0 1 1 1 1 -0
-9 -9 -9 -9 -10 -10 -7 -6 -7 -7 -8 -8 -8 -8 -9 -10 -11 -11 -10 -10 -11 -11 -11 -10 -11 -10 -10 -10 -9 -9 -8 -8 -7 -6 -6 -4 -3 -3 -1 -0 -0 0 0 -0
-9 -9 -10 -10 -10 -9 -8 -7 -8 -8 -10 -10 -10 -11 -12 -11 -11 -11 -11 -11 -11 -11 -11 -11 -11 -10 -10 -9 -9 -8 -8 -8 -8 -8 -7 -6 -5 -4 -3 -2 -1 -1 -2 -1
-9 -9 -12 -11 -12 -15 -8 -8 -10 -10 -11 -11 -13 -12 -12 -13 -13 -11 -12 -12 -12 -12 -12 -12 -12 -12 -12 -12 -10 -10 -10 -10 -9 -9 -9 -9 -8 -8 -6 -3 -3 -3 -3 -2
-10 -10 -11 -11 -13 -11 -10 -10 -10 -12 -12 -13 -13 -13 -14 -14 -14 -13 -13 -13 -13 -13 -13 -13 -13 -13 -13 -13 -13 -12 -11 -11 -10 -10 -9 -9 -9 -9 -8 -7 -6 -5 -4 -3
-12 -12 -12 -13 -13 -15 -11 -12 -12 -13 -12 -13 -13 -14 -14 -15 -15 -14 -14 -14 -14 -14 -14 -15 -15 -15 -15 -16 -15 -15 -14 -14 -13 -13 -11 -9 -10 -9 -9 -8 -8 -8 -8 -6
-14 -13 -13 -13 -13 -13 -13 -13 -13 -13 -13 -13 -14 -14 -15 -15 -15 -15 -15 -15 -15 -15 -15 -16 -16 -16 -16 -15 -16 -16 -15 -15 -15 -15 -13 -12 -11 -10 -10 -11 -10 -9 -9 -9
-15 -15 -15 -14 -14 -13 -14 -13 -14 -14 -14 -14 -14 -15 -15 -16 -15 -16 -16 -16 -16 -16 -16 -16 -16 -16 -16 -16 -16 -16 -16 -16 -16 -16 -15 -15 -14 -13 -11 -11 -11 -10 -9 -9
-15 -15 -15 -15 -14 -14 -14 -14 -14 -15 -15 -15 -15 -15 -16 -16 -16 -16 -16 -16 -16 -16 -16 -17 -17 -17 -17 -17 -17 -17 -17 -17 -17 -16 -16 -15 -15 -14 -14 -13 -12 -11 -10 -10
-15 -14 -15 -14 -14 -14 -14 -14 -15 -15 -15 -15 -15 -16 -16 -16 -17 -17 -17 -17 -17 -17 -17 -17 -17 -17 -17 -17 -17 -17 -17 -16 -16 -16 -16 -16 -15 -15 -15 -14 -13 -13 -12 -10
Height
3122 3118 3119 3121 3124 3122 3118 3115 3108 3109 3111 3101 3094 3085 3087 3090 3091 3087 3086 3084 3083 3081 3081 3080 3078 3077 3076 3075 3075 3077 3078 3079 3079 3079 3080 3081 3083 3084 3086 3087 3089 3091 3094 3096
3114 3110 3116 3117 3117 3117 3113 3107 3102 3097 3102 3096 3085 3069 3075 3080 3079 3080 3078 3076 3074 3072 3073 3072 3070 3069 3067 3066 3065 3066 3068 3069 3070 3070 3071 3071 3074 3075 3076 3078 3079 3081 3084 3086
3106 3108 3111 3109 3108 3108 3106 3105 3098 3093 3093 3087 3075 3053 3065 3069 3070 3071 3070 3070 3067 3067 3065 3066 3064 3063 3061 3060 3058 3058 3059 3060 3061 3062 3062 3062 3063 3064 3065 3067 3069 3071 3075 3078
3099 3102 3100 3101 3099 3103 3094 3102 3096 3093 3090 3081 3080 3042 3050 3058 3062 3065 3064 3066 3066 3063 3062 3062 3060 3057 3053 3053 3053 3052 3051 3051 3052 3053 3054 3054 3055 3056 3059 3061 3063 3064 3067 3070
3096 3095 3096 3094 3096 3096 3086 3089 3089 3086 3083 3078 3074 3074 3044 3052 3054 3056 3059 3060 3060 3061 3058 3056 3053 3047 3047 3044 3042 3043 3044 3045 3045 3045 3048 3047 3047 3047 3050 3051 3052 3053 3056 3060
3089 3090 3089 3089 3089 3088 3087 3083 3083 3083 3078 3073 3067 3072 3013 3047 3050 3051 3056 3057 3057 3057 3053 3049 3045 3040 3038 3037 3036 3036 3037 3039 3041 3040 3039 3039 3040 3041 3042 3042 3043 3045 3047 3050
3085 3084 3081 3083 3082 3080 3080 3081 3077 3078 3079 3066 3060 3063 3041 3047 3050 3047 3046 3048 3050 3049 3045 3044 3040 3036 3032 3029 3027 3029 3030 3031 3032 3033 3033 3033 3032 3032 3033 3035 3036 3038 3040 3044
3071 3065 3076 3076 3075 3074 3071 3073 3072 3072 3070 3059 3058 3048 3029 3045 3044 3042 3037 3039 3040 3041 3040 3038 3035 3031 3027 3022 3019 3020 3021 3021 3022 3023 3024 3024 3025 3025 3025 3027 3029 3031 3034 3036
3066 3055 3060 3065 3068 3069 3064 3061 3065 3058 3057 3055 3049 3040 3035 3031 3032 3034 3033 3036 3040 3038 3033 3026 3027 3026 3021 3017 3015 3016 3016 3016 3017 3017 3017 3019 3019 3021 3021 3022 3022 3023 3025 3028
3062 3055 3051 3053 3055 3056 3056 3057 3053 3053 3053 3045 3035 3034 3031 3024 3021 3029 3029 3028 3027 3026 3021 3017 3019 3019 3014 3010 3008 3004 3003 3003 3006 3008 3011 3013 3014 3014 3015 3015 3016 3019 3020 3020
3056 3052 3046 3046 3043 3044 3047 3045 3045 3042 3042 3033 3027 3024 3030 3026 3025 3020 3018 3015 3016 3017 3015 3011 3007 3007 3006 3004 3001 3000 3000 2999 2998 2996 2995 2997 3002 3004 3005 3006 3008 3010 3012 3013
3049 3042 3039 3034 3037 3037 3035 3035 3036 3032 3023 3019 3015 3012 3018 3021 3022 3013 3008 3004 3003 3007 3006 3004 3002 2998 2996 2994 2993 2992 2990 2989 2988 2990 2990 2991 2991 2992 2991 2992 2996 3000 3001 3002
3039 3032 3027 3024 3027 3025 3023 3024 3025 3023 3017 3009 3008 3003 3011 3013 3008 3003 2998 2995 2992 2992 2992 2993 2992 2989 2986 2984 2982 2981 2980 2978 2978 2978 2977 2979 2978 2979 2977 2980 2982 2983 2987 2992
3030 3024 3027 3022 3021 3024 3020 3019 3014 3015 3008 3001 3000 2999 3001 2996 2995 2994 2986 2982 2983 2979 2976 2974 2976 2976 2975 2972 2969 2966 2965 2965 2967 2965 2962 2964 2965 2964 2963 2966 2966 2967 2971 2974
3021 3014 3017 3011 3012 3013 3010 3007 3005 3001 3001 2998 2990 2990 2988 2984 2984 2985 2981 2978 2972 2967 2964 2960 2959 2959 2961 2959 2958 2955 2953 2951 2950 2948 2952 2952 2951 2950 2950 2953 2952 2952 2954 2958
3010 3006 3007 3001 3002 3001 2997 2995 2990 2989 2985 2983 2983 2980 2974 2972 2973 2969 2965 2963 2961 2956 2951 2950 2947 2943 2943 2943 2944 2943 2940 2938 2937 2934 2934 2935 2934 2934 2936 2937 2938 2937 2939 2939
3003 3001 2999 2989 2995 2993 2986 2979 2979 2975 2975 2974 2971 2969 2965 2965 2964 2961 2960 2956 2951 2947 2945 2940 2936 2933 2933 2932 2931 2929 2926 2923 2921 2918 2917 2916 2915 2916 2918 2918 2918 2922 2924 2925
2992 2994 2991 2984 2989 2981 2968 2969 2966 2964 2962 2962 2960 2959 2957 2955 2954 2954 2951 2947 2943 2939 2935 2932 2926 2924 2924 2923 2920 2915 2913 2909 2906 2904 2903 2901 2896 2898 2900 2900 2899 2898 2903 2906
2983 2984 2979 2979 2973 2964 2964 2963 2961 2958 2955 2955 2953 2951 2950 2949 2946 2945 2942 2939 2935 2931 2927 2922 2917 2914 2912 2908 2903 2901 2897 2896 2894 2892 2890 2887 2885 2883 2883 2881 2880 2880 2881 2882
2971 2971 2973 2969 2963 2960 2954 2955 2952 2948 2947 2947 2947 2944 2942 2940 2936 2934 2932 2928 2925 2921 2918 2913 2908 2903 2900 2896 2891 2886 2883 2882 2881 2879 2878 2877 2872 2869 2866 2863 2863 2862 2863 2864
2966 2965 2961 2957 2954 2949 2948 2949 2946 2948 2949 2944 2941 2938 2935 2931 2928 2924 2922 2918 2914 2910 2906 2901 2896 2891 2886 2881 2876 2873 2870 2869 2866 2864 2862 2860 2860 2855 2853 2849 2848 2848 2848 2848
2958 2957 2953 2952 2950 2947 2946 2946 2946 2944 2939 2936 2932 2929 2925 2921 2917 2914 2911 2906 2902 2898 2894 2890 2883 2879 2876 2871 2865 2860 2858 2853 2849 2847 2844 2842 2841 2842 2839 2839 2838 2834 2834 2833
2952 2950 2950 2950 2941 2941 2940 2939 2938 2934 2931 2927 2923 2920 2916 2912 2907 2902 2897 2894 2890 2885 2882 2877 2870 2865 2863 2859 2852 2844 2842 2836 2832 2828 2825 2823 2824 2823 2825 2823 2823 2822 2821 2821
2939 2943 2939 2939 2929 2931 2931 2930 2928 2926 2921 2917 2914 2909 2905 2901 2897 2891 2886 2881 2877 2872 2866 2861 2856 2849 2843 2842 2836 2829 2821 2815 2811 2807 2807 2806 2804 2805 2804 2806 2805 2805 2807 2809
2931 2931 2928 2923 2920 2922 2920 2918 2917 2914 2911 2908 2904 2900 2895 2889 2885 2879 2873 2869 2862 2856 2852 2845 2837 2830 2823 2818 2811 2808 2803 2796 2790 2787 2786 2785 2785 2785 2784 2786 2786 2786 2791 2794
2921 2917 2919 2912 2915 2914 2910 2908 2906 2902 2900 2896 2893 2890 2886 2879 2872 2866 2860 2855 2848 2841 2834 2826 2819 2809 2801 2794 2786 2780 2774 2770 2767 2764 2765 2763 2762 2765 2765 2764 2767 2769 2772 2776
Wind_Speed
36 38 38 39 37 38 39 42 47 46 42 48 51 56 53 48 44 44 43 42 38 34 32 32 32 29 30 31 35 38 38 38 40 41 41 39 38 39 39 40 40 40 39 38
40 42 39 36 35 34 37 42 47 51 42 45 52 60 51 45 44 37 34 32 31 29 17 17 15 18 22 30 35 39 39 39 42 43 39 38 38 40 39 38 39 41 40 39
42 41 39 38 38 40 43 42 49 50 44 42 48 54 31 27 38 34 20 18 12 9 25 18 18 13 17 20 24 31 38 43 44 41 39 38 39 42 42 41 40 40 41 39
36 34 30 24 24 22 36 28 35 39 38 26 25 25 32 31 21 26 8 7 6 22 35 29 31 28 24 27 29 28 28 27 26 30 33 36 39 40 37 37 35 36 38 38
31 29 29 31 31 24 32 24 27 30 32 36 17 13 30 28 25 5 5 5 16 33 24 46 35 32 30 30 31 30 25 23 23 26 28 32 38 39 38 38 37 37 37 37
32 28 27 29 33 35 33 30 26 27 27 12 21 18 60 11 5 9 5 30 21 36 41 36 29 35 28 30 30 27 18 16 22 27 31 33 35 36 37 38 38 36 36 37
32 35 41 43 38 35 33 29 6 4 3 10 6 13 41 28 32 33 25 39 46 32 25 25 27 32 32 34 27 22 17 15 20 27 31 30 31 31 31 32 32 32 35 38
25 39 26 21 25 24 26 21 15 7 5 14 28 15 51 46 53 53 38 35 24 16 19 23 27 22 21 17 12 12 13 16 21 25 28 28 25 23 24 27 29 32 35 39
20 38 33 20 20 25 27 26 32 36 34 16 34 39 48 57 43 36 21 10 24 29 28 22 21 25 27 19 14 13 13 16 20 22 23 22 19 17 19 23 32 37 40 42
32 34 42 31 24 31 31 32 16 11 4 8 12 32 31 53 61 55 40 35 39 36 31 30 33 30 23 17 11 3 6 8 11 13 16 17 20 23 26 27 31 38 43 44
29 28 35 26 31 32 30 26 31 30 26 12 18 23 46 53 49 45 40 33 33 32 36 41 48 45 35 31 34 28 26 23 22 20 22 25 27 28 30 31 34 36 42 48
33 34 31 47 34 36 37 40 37 28 18 34 28 24 42 38 40 49 54 47 44 37 45 48 42 38 34 38 41 43 37 40 42 44 42 42 44 37 40 35 36 41 44 52
22 17 12 17 26 27 24 27 26 28 30 26 18 15 36 36 40 49 55 54 52 41 37 39 39 41 43 44 49 50 52 54 51 50 50 47 46 44 42 40 41 43 48 49
34 36 31 28 31 40 35 36 40 32 28 32 34 40 39 39 39 40 46 49 56 62 57 49 49 51 51 51 53 59 57 53 52 57 55 55 52 46 46 43 44 44 44 45
43 40 40 44 43 39 37 38 42 48 43 31 42 43 39 52 58 59 62 64 67 63 57 55 54 52 53 54 51 54 56 55 54 53 53 51 51 51 46 49 46 44 43 43
26 23 24 36 39 43 45 49 52 50 53 44 40 36 37 40 45 45 40 43 49 54 58 51 45 37 36 46 50 52 55 54 50 48 51 53 53 56 59 58 54 49 50 49
41 36 34 38 40 30 30 48 42 42 44 42 40 41 38 29 31 30 29 32 33 36 39 42 40 38 36 38 44 46 46 51 51 53 53 55 58 56 57 56 58 62 65 60
43 44 39 37 37 19 37 32 26 24 23 27 26 26 23 25 28 27 31 33 37 40 45 48 50 52 51 48 43 42 42 44 50 52 58 60 58 56 54 57 58 58 61 64
48 47 27 19 24 30 35 31 30 28 25 26 25 24 26 30 35 36 36 39 42 47 52 55 57 57 56 57 58 55 49 46 45 45 48 49 54 54 56 56 59 61 63 65
17 17 26 17 7 6 17 25 22 30 24 19 20 32 38 40 44 47 45 45 48 51 50 50 52 54 52 49 54 57 54 52 54 52 49 48 42 40 42 51 56 59 57 60
24 23 27 35 16 18 23 29 33 12 13 27 34 37 38 38 39 44 47 48 48 49 50 51 51 51 51 52 50 51 53 50 51 51 55 54 53 48 42 43 45 45 48 52
17 14 18 10 8 11 19 18 19 29 40 40 38 41 39 39 44 46 48 51 51 51 51 49 49 51 51 51 52 52 51 53 53 51 54 55 56 57 58 49 43 34 36 51
22 29 20 17 24 35 40 43 37 35 40 40 43 40 42 45 48 49 52 52 52 51 49 49 53 56 57 57 60 63 60 58 57 55 51 53 53 51 47 55 53 46 38 33
40 37 40 41 45 37 36 36 39 35 37 38 40 43 45 47 49 51 51 52 54 54 54 55 59 63 66 66 68 70 71 69 66 62 58 54 53 52 52 45 52 57 52 47
40 38 39 41 46 42 43 35 33 37 37 40 44 45 47 49 49 50 53 55 56 57 57 60 65 69 74 76 79 77 75 74 73 70 65 62 57 55 53 51 48 51 56 52
47 48 41 44 40 43 40 38 39 41 44 45 43 44 44 47 51 54 55 55 57 60 63 68 72 76 80 83 85 83 81 79 77 76 71 66 64 56 55 53 50 47 49 51
Wind_Direction
272 266 266 278 284 289 287 286 286 287 294 291 290 291 294 293 288 289 292 296 297 299 294 291 281 273 269 260 256 257 258 259 261 265 268 265 263 258 258 259 254 251 252 251
270 268 281 287 284 284 283 284 283 290 297 296 297 292 291 294 295 295 300 300 304 297 314 342 322 289 277 265 257 255 255 257 261 264 266 261 258 256 255 253 251 248 249 249
272 279 282 280 278 279 280 281 287 291 301 295 298 296 305 298 300 304 298 313 327 358 337 336 311 294 287 283 275 268 265 266 269 267 261 262 257 255 254 254 252 249 246 245
278 283 283 278 279 287 282 297 297 295 298 293 296 297 300 314 315 303 303 306 341 325 320 313 312 296 273 265 271 269 274 270 272 271 264 265 263 259 259 256 255 252 249 243
274 281 285 289 294 290 287 293 284 287 288 293 299 266 298 306 309 327 234 181 300 304 306 317 305 285 274 264 260 269 269 275 271 267 265 273 267 262 257 252 247 244 240 234
273 279 287 300 302 297 293 282 276 276 272 276 277 242 290 306 95 137 274 303 311 311 305 298 287 284 285 280 282 269 266 276 276 270 268 263 260 262 261 255 249 242 229 227
280 283 285 292 294 290 274 261 290 276 165 233 283 241 264 275 287 294 286 295 302 301 292 298 301 302 309 298 272 270 263 279 278 270 268 264 262 259 257 252 246 235 230 229
289 293 291 282 279 279 276 252 209 221 253 284 291 258 272 282 287 301 308 300 294 285 293 300 308 301 328 309 270 253 260 258 265 259 256 256 256 248 244 244 241 234 235 231
281 275 282 267 268 267 264 245 270 256 263 271 268 267 278 288 296 301 320 301 302 292 281 289 312 319 333 320 292 273 252 257 257 256 254 246 233 255 264 263 247 234 231 229
271 266 277 276 260 254 252 261 256 239 254 250 231 260 270 289 291 298 299 286 285 279 279 285 296 292 296 292 308 243 209 231 248 256 252 257 262 265 268 266 265 254 238 231
267 257 258 265 258 258 256 248 260 267 258 261 267 262 274 278 292 297 299 294 284 277 275 273 290 289 305 272 276 287 276 270 267 244 235 243 260 262 265 266 263 261 248 238
280 276 259 263 264 269 268 270 267 246 257 252 267 266 256 264 279 289 294 294 292 285 280 287 285 285 283 290 274 275 285 280 279 280 279 275 276 267 257 258 261 257 250 246
268 246 285 282 285 278 257 255 258 276 275 259 262 271 283 288 278 278 279 284 289 290 286 282 278 281 282 283 285 279 279 273 283 279 281 284 279 272 271 262 251 250 251 253
271 274 268 270 268 279 274 268 279 288 270 283 274 283 279 277 273 265 274 283 291 289 289 284 277 278 280 277 277 276 282 282 272 275 277 275 277 276 276 259 250 246 244 248
269 272 271 269 268 268 271 274 274 280 278 272 282 288 287 288 289 289 291 290 293 291 286 284 280 279 273 270 272 275 278 279 277 276 271 271 272 271 276 267 251 243 248 254
264 264 269 273 265 278 291 287 279 276 278 281 289 281 280 281 284 285 283 277 274 277 285 288 283 282 279 278 274 269 271 271 268 269 277 279 278 278 275 273 260 254 255 252
275 276 278 276 284 290 281 274 279 280 281 274 268 273 272 271 271 276 281 286 292 289 291 295 291 291 297 291 284 277 269 270 275 277 277 278 279 280 277 272 266 261 264 262
276 275 272 274 284 270 274 281 274 268 267 264 257 250 262 284 289 296 293 303 301 301 306 306 311 305 305 304 301 292 284 282 283 282 281 279 279 277 272 268 262 261 262 261
268 266 261 254 245 263 271 269 272 280 281 279 280 283 290 290 290 298 303 301 301 302 304 307 308 308 308 306 304 303 300 299 290 282 272 268 266 265 268 269 266 263 262 252
248 242 231 231 238 232 269 279 289 296 289 273 306 310 315 313 308 297 308 310 308 310 311 311 308 307 307 305 302 301 300 301 298 292 291 281 269 264 259 260 262 262 259 257
259 245 231 243 254 262 268 282 285 279 284 312 307 310 310 308 307 310 310 309 309 308 309 310 308 306 304 304 301 298 295 296 293 291 286 288 287 278 272 261 256 258 257 255
251 250 247 261 264 281 277 278 281 295 299 302 303 309 305 305 307 307 306 306 307 307 307 307 306 305 305 305 303 301 298 296 292 288 286 283 282 283 281 278 269 264 268 258
253 256 268 264 262 274 278 284 291 297 302 291 299 304 304 304 304 304 305 304 304 302 301 301 302 302 301 301 301 299 299 296 294 293 283 280 279 273 273 277 279 279 270 264
266 267 268 278 279 285 293 297 298 299 300 299 296 301 301 303 303 303 303 302 301 298 298 300 299 298 298 298 296 297 297 296 294 289 287 282 275 272 269 263 270 275 276 281
276 278 277 277 286 294 299 302 301 299 295 296 296 298 302 303 303 303 302 302 304 301 297 298 298 299 299 299 297 295 293 291 290 289 288 283 279 274 270 263 261 263 269 268
274 277 270 282 299 298 299 301 298 295 297 298 298 299 300 301 303 304 303 304 304 303 302 302 300 298 296 295 294 293 291 287 285 284 284 280 277 273 270 266 256 257 257 254